Location: Ash Swamp
(41.5170°N, 74.6157°W)
Time: 02:21:27
(UTC+00:00)

IRIS - Pass Details

Date: 14 July 2020
Orbit: 278 x 2721 km, 41.2° (Epoch: 14 August)

Event Time Altitude Azimuth Distance (km) Brightness Sun altitude
Rises 01:47:44 0° 280° (W) 3,093 9.7 -12.2°
Reaches altitude 10° 01:50:42 10° 276° (W) 1,826 8.3 -12.6°
Maximum altitude 01:54:27 49° 200° (SSW) 518 4.5 -13.1°
Enters shadow 01:55:39 28° 139° (SE) 716 4.8 -13.2°
